Regional Weather Roundup
Issued by NWS

Home | Current Version | Previous Version | Graphics & Text | Print | Product List | Glossary On
Versions: 1 2 3 4 5 6 7 8 9 10 11 12 13 14 15 16 17 18 19 20 21 22 23 24 25 26 27 28 29 30 31 32 33 34 35 36 37 38 39 40 41 42 43 44 45 46 47 48 49 50
000
ASUS43 KDMX 031007
RWRIA

WEATHER ROUNDUP FOR IOWA
NATIONAL WEATHER SERVICE DES MOINES IA
500 AM CDT THU SEP 03 2015

NOTE: "FAIR" INDICATES FEW OR NO CLOUDS BELOW 12,000 FEET WITH NO
SIGNIFICANT WEATHER AND/OR OBSTRUCTIONS TO VISIBILITY.

* - THESE STATIONS ARE NOT NWS STATIONS...THUS NOT UNDER NWS
QUALITY CONTROL.  THEY ALSO DO NOT REPORT WEATHER SUCH
AS PRECIPITATION OR FOG.

IAZ001>003-012>014-020>022-031>034-043>046-031100-
   NORTHWEST IOWA

CITY           SKY/WX    TMP DP  RH WIND       PRES   REMARKS
CARROLL *      CLEAR     70  70 100 S3        29.87S
CHEROKEE *     CLEAR     70  70 100 S5        29.86S
DENISON *      CLEAR     72  68  88 S9        29.85S
LE MARS *      CLEAR     70  68  94 S5        29.84S
ORANGE CITY *  CLEAR     72  68  88 S7        29.85S
SHELDON *      CLEAR     68  68 100 SE6       29.84S
SIOUX CITY     CLEAR     69  64  84 SE8       29.83S
SPENCER        CLEAR     68  65  90 E7        29.87S FOG
STORM LAKE *   CLEAR     70  68  94 S5        29.88S
$$

IAZ055>058-069>071-079>083-090>094-031100-
   SOUTHWEST IOWA

CITY           SKY/WX    TMP DP  RH WIND       PRES   REMARKS
ATLANTIC *     CLOUDY    73  70  88 S7        29.88F
AUDUBON *      CLEAR     72  66  83 S5        29.90S
CLARINDA *     MOCLDY    73  70  88 S6        29.91S
COUNCIL BLFS * CLEAR     70  68  94 SE9       29.86F
CRESTON *      CLOUDY    73  70  88 S9        29.93S
LAMONI         MOCLDY    72  69  90 S7        29.93S
RED OAK *      CLEAR     72  70  94 S6        29.88F
SHENANDOAH *   MOCLDY    73  70  88 S5        29.88S
$$

IAZ047>049-059>061-072>074-084-031100-
   CENTRAL IOWA

CITY           SKY/WX    TMP DP  RH WIND       PRES   REMARKS
AMES           CLEAR     66  66 100 S5        29.90S FOG
ANKENY *       CLEAR     72  70  94 CALM      29.90S
CHARITON *     CLEAR     72  68  88 S7        29.93R
DES MOINES     PTCLDY    73  68  84 S5        29.90S
GRINNELL*      CLEAR     70  68  94 S7        29.93S
KNOXVILLE *    CLOUDY    72  68  88 S7        29.91S
MARSHALLTOWN   CLEAR     70  68  93 SE5       29.91S
PELLA *        CLEAR     72  72 100 S5        29.93S
PERRY *          N/A     70  68  94 S3        29.89S
$$

IAZ004>006-015-016-023>025-035-036-031100-
   NORTH CENTRAL IOWA

CITY           SKY/WX    TMP DP  RH WIND       PRES   REMARKS
ALGONA *       CLEAR     70  68  94 S8        29.89S
CLARION *      CLEAR     68  68 100 S7        29.89F
ESTHERVILLE    CLEAR     66  65  96 S5        29.87F FOG
FORT DODGE *   CLEAR     72  66  83 SE3       29.89F
MASON CITY     FOG       64  64 100 E5        29.92S VSB 1/2
FOREST CITY *  CLEAR     63  63 100 CALM      29.90S FOG
IOWA FALLS *     N/A     68  66  94 E5        29.92S FOG
$$

IAZ007>011-017>019-026>030-037>042-050>054-066-031100-
   NORTHEAST IOWA

CITY           SKY/WX    TMP DP  RH WIND       PRES   REMARKS
CEDAR RAPIDS   MOCLDY    70  69  97 SE3       29.93S
CHARLES CITY * CLEAR     68  68 100 SE6       29.93R FOG
CLINTON *      CLEAR     70  66  88 S3        29.97R
DECORAH *      CLOUDY    70  70 100 CALM      29.92S
DUBUQUE        CLOUDY    68  67  96 SW6       29.95S
MONTICELLO *   PTCLDY    68  66  94 CALM      29.94S
OELWEIN *        N/A     68  68 100 SE3       29.94S
WATERLOO       CLEAR     69  67  93 SE3       29.90S
$$

IAZ064-065-067-068-078-031100-
   EAST CENTRAL IOWA

CITY           SKY/WX    TMP DP  RH WIND       PRES   REMARKS
DAVENPORT      PTCLDY    72  68  87 S6        29.95S
IOWA CITY      CLEAR     69  66  90 CALM      29.94S
MT. PLEASANT * CLEAR     72  68  88 S5        29.95R
MUSCATINE *    PTCLDY    66  64  94 CALM      29.95R FOG
QUAD CITIES    PTCLDY    73  68  84 CALM      29.94S
$$

IAZ062-063-075>077-085>089-095>099-031100-
   SOUTHEAST IOWA

CITY           SKY/WX    TMP DP  RH WIND       PRES   REMARKS
BURLINGTON     PTCLDY    71  69  93 SW5       29.94S
FAIRFIELD *    PTCLDY    70  66  88 SW5       29.93S
FORT MADISON * PTCLDY    73  70  88 S6        29.96S
KEOKUK *       MOCLDY    73  68  83 S6        29.95R
OSKALOOSA *      N/A     70  68  94 S6        29.93S
CENTERVILLE *  CLEAR     70  68  94 S5        29.96S
OTTUMWA        PTCLDY    71  69  93 SW7       29.92S
WASHINGTON *     N/A    N/A N/A N/A MISG        N/A
$$

ABBREVIATIONS USED IN REMARKS
   TC - TEMPERATURES IN CELSIUS
  WCI - WIND CHILL INDEX
   HX - HEAT INDEX
  VSB - VISIBILITY
$$




USA.gov is the U.S. government's official web portal to all federal, state and local government web resources and services.